Simultaneous Nadir Overpasses (SNOs) Predictions

Prediction of SNOs between AQUA and METOP-B Satellite Orbit:

Table of predicted SNOs for the next 14.0 days since TLE Epoch: 10/18/2025
Index Date (AQUA) Time (AQUA) Lat,Lon (AQUA) SZA (AQUA ) Date (METOP-B) Time (METOP-B) Lat,Lon (METOP-B) SZA (METOP-B ) Distance(km) Time Diff (sec)
1 10/19/2025 18:52:09 -77.96, 77.82 91.81 10/19/2025 18:50:59 -77.95, 77.81 91.81 0.47 70
2 10/19/2025 19:41:27 77.97,-114.56 88.22 10/19/2025 19:41:38 77.99,-114.69 88.24 3.40 11
3 10/22/2025 06:50:18 77.95, 78.38 89.09 10/22/2025 06:49:30 77.96, 78.24 89.10 3.51 48
4 10/22/2025 07:39:36 -77.99,-114.12 90.87 10/22/2025 07:40:11 -78.01,-114.18 90.84 3.27 35
5 10/24/2025 18:48:25 -77.98, 78.79 90.02 10/24/2025 18:48:02 -77.98, 78.69 90.02 2.20 23
6 10/24/2025 19:37:44 78.04,-113.84 90.06 10/24/2025 19:38:41 78.02,-113.79 90.04 2.91 57
7 10/27/2025 05:57:08 -77.72, -87.15 89.41 10/27/2025 05:56:01 -77.66, -89.88 89.52 65.25 67
8 10/27/2025 06:46:32 78.01, 79.21 90.87 10/27/2025 06:46:32 78.02, 79.27 90.89 2.60 0
9 10/29/2025 17:55:19 77.98, -87.79 91.66 10/29/2025 17:54:24 77.98, -87.92 91.66 2.83 55



Historial Predications of SNOs between AQUA and METOP-B
